Time,TemperatureF,DewpointF,PressureIn,WindDirection,WindDirectionDegrees,WindSpeedMPH,WindSpeedGustMPH,Humidity,HourlyPrecipIn,Conditions,Clouds,dailyrainin,SoftwareType,DateUTC
2013-04-25 00:01:00,36.3,32.1,30.03,West,270,9.4,19.5,84,0.00,,,0.00,WUHU21623XXSP,2013-04-25 04:01:00,
2013-04-25 00:06:00,36.5,32.1,30.04,West,270,11.0,20.6,84,0.00,,,0.00,WUHU21623XXSP,2013-04-25 04:06:00,
2013-04-25 00:12:00,36.5,32.1,30.04,West,270,11.9,20.6,84,0.00,,,0.00,WUHU21623XXSP,2013-04-25 04:12:00,
2013-04-25 00:17:00,36.3,31.9,30.04,West,270,11.2,14.8,84,0.00,,,0.00,WUHU21623XXSP,2013-04-25 04:17:00,
2013-04-25 00:22:00,36.3,31.9,30.04,West,270,8.3,18.1,84,0.00,,,0.00,WUHU21623XXSP,2013-04-25 04:22:00,
2013-04-25 00:27:00,36.3,31.9,30.05,West,270,10.1,18.1,84,0.00,,,0.00,WUHU21623XXSP,2013-04-25 04:27:00,
2013-04-25 00:32:00,36.5,32.1,30.05,WSW,247,6.0,22.6,84,0.00,,,0.00,WUHU21623XXSP,2013-04-25 04:32:00,
2013-04-25 00:37:00,36.5,32.1,30.06,West,270,4.0,22.6,84,0.00,,,0.00,WUHU21623XXSP,2013-04-25 04:37:00,
2013-04-25 00:42:00,36.3,31.9,30.06,West,270,4.7,15.0,84,0.00,,,0.00,WUHU21623XXSP,2013-04-25 04:42:00,
2013-04-25 00:47:00,36.3,31.9,30.06,West,270,8.3,13.4,84,0.00,,,0.00,WUHU21623XXSP,2013-04-25 04:47:00,
2013-04-25 00:52:00,36.3,31.9,30.06,West,270,14.1,19.7,84,0.00,,,0.00,WUHU21623XXSP,2013-04-25 04:52:00,
2013-04-25 00:57:00,36.3,31.9,30.06,West,270,6.7,19.7,84,0.00,,,0.00,WUHU21623XXSP,2013-04-25 04:57:00,
2013-04-25 01:02:00,36.3,31.9,30.06,WSW,247,7.2,15.0,84,0.00,,,0.00,WUHU21623XXSP,2013-04-25 05:02:00,
2013-04-25 01:10:00,36.3,31.9,30.06,WSW,247,7.2,7.2,84,0.00,,,0.00,WUHU21623XXSP,2013-04-25 05:10:00,
2013-04-25 01:15:00,36.5,32.1,30.06,West,270,8.1,16.1,84,0.00,,,0.00,WUHU21623XXSP,2013-04-25 05:15:00,
2013-04-25 01:20:00,36.5,32.1,30.06,West,270,7.2,19.7,84,0.00,,,0.00,WUHU21623XXSP,2013-04-25 05:20:00,
2013-04-25 01:25:00,36.5,32.1,30.06,WSW,247,11.9,21.0,84,0.00,,,0.00,WUHU21623XXSP,2013-04-25 05:25:00,
2013-04-25 01:30:00,36.5,32.1,30.07,West,270,6.0,21.0,84,0.00,,,0.00,WUHU21623XXSP,2013-04-25 05:30:00,
2013-04-25 01:35:00,36.5,32.1,30.07,West,270,8.1,16.3,84,0.00,,,0.00,WUHU21623XXSP,2013-04-25 05:35:00,
2013-04-25 01:40:00,36.5,31.9,30.07,West,270,8.5,17.0,84,0.00,,,0.00,WUHU21623XXSP,2013-04-25 05:40:00,
2013-04-25 01:45:00,36.5,32.1,30.07,West,270,4.3,17.9,84,0.00,,,0.00,WUHU21623XXSP,2013-04-25 05:45:00,
2013-04-25 01:50:00,36.3,32.2,30.07,SW,225,4.5,17.9,85,0.00,,,0.00,WUHU21623XXSP,2013-04-25 05:50:00,
2013-04-25 01:55:00,36.3,32.2,30.07,WSW,247,7.2,18.6,85,0.00,,,0.00,WUHU21623XXSP,2013-04-25 05:55:00,
2013-04-25 02:00:00,36.3,32.2,30.07,West,270,9.2,18.6,85,0.00,,,0.00,WUHU21623XXSP,2013-04-25 06:00:00,
2013-04-25 02:05:00,36.3,32.2,30.07,West,270,9.2,13.6,85,0.00,,,0.00,WUHU21623XXSP,2013-04-25 06:05:00,
2013-04-25 02:10:00,36.3,32.2,30.07,WSW,247,10.7,10.7,85,0.00,,,0.00,WUHU21623XXSP,2013-04-25 06:10:00,
2013-04-25 02:15:00,36.1,32.0,30.07,West,270,6.5,14.3,85,0.00,,,0.00,WUHU21623XXSP,2013-04-25 06:15:00,
2013-04-25 02:20:00,36.1,32.0,30.07,West,270,7.8,14.3,85,0.00,,,0.00,WUHU21623XXSP,2013-04-25 06:20:00,
2013-04-25 02:25:00,36.0,31.8,30.07,WSW,247,3.8,15.4,85,0.00,,,0.00,WUHU21623XXSP,2013-04-25 06:25:00,
2013-04-25 02:30:00,36.0,32.1,30.07,West,270,5.8,15.4,86,0.00,,,0.00,WUHU21623XXSP,2013-04-25 06:30:00,
2013-04-25 02:35:00,35.8,31.9,30.07,West,270,4.5,12.5,86,0.00,,,0.00,WUHU21623XXSP,2013-04-25 06:35:00,
2013-04-25 02:40:00,35.8,31.9,30.07,WSW,247,12.1,12.5,86,0.00,,,0.00,WUHU21623XXSP,2013-04-25 06:40:00,
2013-04-25 02:45:00,35.8,31.9,30.07,West,270,7.2,13.4,86,0.00,,,0.00,WUHU21623XXSP,2013-04-25 06:45:00,
2013-04-25 02:50:00,35.8,31.9,30.07,WSW,247,3.6,13.4,86,0.00,,,0.00,WUHU21623XXSP,2013-04-25 06:50:00,
2013-04-25 02:55:00,35.4,31.6,30.07,West,270,2.9,11.4,86,0.00,,,0.00,WUHU21623XXSP,2013-04-25 06:55:00,
2013-04-25 03:00:00,35.4,31.6,30.07,WSW,247,3.1,11.4,86,0.00,,,0.00,WUHU21623XXSP,2013-04-25 07:00:00,
2013-04-25 03:05:00,35.4,31.6,30.07,WSW,247,3.1,6.0,86,0.00,,,0.00,WUHU21623XXSP,2013-04-25 07:05:00,
2013-04-25 03:10:00,35.4,31.9,30.07,West,270,6.7,6.7,87,0.00,,,0.00,WUHU21623XXSP,2013-04-25 07:10:00,
2013-04-25 03:15:00,34.9,31.3,30.07,West,270,2.7,6.9,87,0.00,,,0.00,WUHU21623XXSP,2013-04-25 07:15:00,
2013-04-25 03:20:00,34.9,31.3,30.07,WSW,247,4.0,10.1,87,0.00,,,0.00,WUHU21623XXSP,2013-04-25 07:20:00,
2013-04-25 03:25:00,34.9,31.3,30.07,WSW,247,9.2,10.1,87,0.00,,,0.00,WUHU21623XXSP,2013-04-25 07:25:00,
2013-04-25 03:30:00,34.7,31.1,30.07,WSW,247,5.6,9.4,87,0.00,,,0.00,WUHU21623XXSP,2013-04-25 07:30:00,
2013-04-25 03:35:00,34.5,31.0,30.07,WSW,247,7.4,9.2,87,0.00,,,0.00,WUHU21623XXSP,2013-04-25 07:35:00,
2013-04-25 03:41:00,34.5,31.0,30.07,West,270,5.4,9.2,87,0.00,,,0.00,WUHU21623XXSP,2013-04-25 07:41:00,
2013-04-25 03:46:00,34.5,31.0,30.08,WSW,247,6.0,8.9,87,0.00,,,0.00,WUHU21623XXSP,2013-04-25 07:46:00,
2013-04-25 03:51:00,34.5,31.2,30.08,WSW,247,2.9,8.9,88,0.00,,,0.00,WUHU21623XXSP,2013-04-25 07:51:00,
2013-04-25 03:56:00,34.5,31.2,30.08,WSW,247,6.7,8.5,88,0.00,,,0.00,WUHU21623XXSP,2013-04-25 07:56:00,
2013-04-25 04:01:00,34.3,30.8,30.08,WSW,247,3.6,6.7,87,0.00,,,0.00,WUHU21623XXSP,2013-04-25 08:01:00,
2013-04-25 04:10:00,34.3,30.8,30.08,WSW,247,3.6,3.6,87,0.00,,,0.00,WUHU21623XXSP,2013-04-25 08:10:00,
2013-04-25 04:15:00,34.2,30.9,30.09,WSW,247,3.4,4.3,88,0.00,,,0.00,WUHU21623XXSP,2013-04-25 08:15:00,
2013-04-25 04:20:00,33.8,30.5,30.09,WSW,247,0.7,5.4,88,0.00,,,0.00,WUHU21623XXSP,2013-04-25 08:20:00,
2013-04-25 04:25:00,33.6,30.4,30.09,WSW,247,3.6,4.3,88,0.00,,,0.00,WUHU21623XXSP,2013-04-25 08:25:00,
2013-04-25 04:30:00,33.4,30.2,30.09,WSW,247,2.9,6.5,88,0.00,,,0.00,WUHU21623XXSP,2013-04-25 08:30:00,
2013-04-25 04:35:00,33.3,30.0,30.09,SW,225,0.0,6.5,88,0.00,,,0.00,WUHU21623XXSP,2013-04-25 08:35:00,
2013-04-25 04:40:00,32.9,29.7,30.09,SW,225,0.0,4.7,88,0.00,,,0.00,WUHU21623XXSP,2013-04-25 08:40:00,
2013-04-25 04:45:00,32.7,29.6,30.10,SW,225,0.0,0.0,88,0.00,,,0.00,WUHU21623XXSP,2013-04-25 08:45:00,
2013-04-25 04:50:00,32.7,29.6,30.10,SW,225,0.0,0.0,88,0.00,,,0.00,WUHU21623XXSP,2013-04-25 08:50:00,
2013-04-25 04:55:00,32.5,29.4,30.10,SW,225,3.6,3.6,88,0.00,,,0.00,WUHU21623XXSP,2013-04-25 08:55:00,
2013-04-25 05:00:00,32.4,29.2,30.10,SW,225,2.5,3.8,88,0.00,,,0.00,WUHU21623XXSP,2013-04-25 09:00:00,
2013-04-25 05:05:00,32.4,29.2,30.10,SW,225,2.5,3.8,88,0.00,,,0.00,WUHU21623XXSP,2013-04-25 09:05:00,
2013-04-25 05:10:00,32.4,29.2,30.10,SSW,202,3.4,3.4,88,0.00,,,0.00,WUHU21623XXSP,2013-04-25 09:10:00,
2013-04-25 05:15:00,31.8,28.7,30.11,SSW,202,4.5,5.1,88,0.00,,,0.00,WUHU21623XXSP,2013-04-25 09:15:00,
2013-04-25 05:20:00,31.6,28.5,30.11,SSW,202,4.7,5.1,88,0.00,,,0.00,WUHU21623XXSP,2013-04-25 09:20:00,
2013-04-25 05:25:00,31.6,28.5,30.11,SSW,202,4.5,5.4,88,0.00,,,0.00,WUHU21623XXSP,2013-04-25 09:25:00,
2013-04-25 05:30:00,31.6,28.8,30.11,SSW,202,4.3,5.4,89,0.00,,,0.00,WUHU21623XXSP,2013-04-25 09:30:00,
2013-04-25 05:35:00,31.5,28.7,30.11,SSW,202,4.9,5.8,89,0.00,,,0.00,WUHU21623XXSP,2013-04-25 09:35:00,
2013-04-25 05:40:00,31.3,28.5,30.12,SSW,202,4.0,5.8,89,0.00,,,0.00,WUHU21623XXSP,2013-04-25 09:40:00,
2013-04-25 05:45:00,31.3,28.5,30.12,SSW,202,3.6,5.4,89,0.00,,,0.00,WUHU21623XXSP,2013-04-25 09:45:00,
2013-04-25 05:50:00,31.1,28.3,30.12,SSW,202,2.5,5.4,89,0.00,,,0.00,WUHU21623XXSP,2013-04-25 09:50:00,
2013-04-25 05:55:00,31.1,28.3,30.12,SSW,202,3.1,5.4,89,0.00,,,0.00,WUHU21623XXSP,2013-04-25 09:55:00,
2013-04-25 06:00:00,30.9,28.1,30.13,SSW,202,3.1,3.6,89,0.00,,,0.00,WUHU21623XXSP,2013-04-25 10:00:00,
2013-04-25 06:05:00,30.9,28.1,30.13,SSW,202,3.1,3.6,89,0.00,,,0.00,WUHU21623XXSP,2013-04-25 10:05:00,
2013-04-25 06:10:00,30.9,28.1,30.13,SSW,202,2.7,3.4,89,0.00,,,0.00,WUHU21623XXSP,2013-04-25 10:10:00,
2013-04-25 06:15:00,31.1,28.6,30.14,SSW,202,2.0,3.4,90,0.00,,,0.00,WUHU21623XXSP,2013-04-25 10:15:00,
2013-04-25 06:20:00,30.9,28.4,30.14,SSW,202,2.7,3.1,90,0.00,,,0.00,WUHU21623XXSP,2013-04-25 10:20:00,
2013-04-25 06:25:00,31.1,28.6,30.14,SSW,202,3.1,4.0,90,0.00,,,0.00,WUHU21623XXSP,2013-04-25 10:25:00,
2013-04-25 06:31:00,31.6,29.1,30.14,SW,225,3.6,4.0,90,0.00,,,0.00,WUHU21623XXSP,2013-04-25 10:31:00,
2013-04-25 06:36:00,31.6,29.1,30.14,SW,225,2.7,3.8,90,0.00,,,0.00,WUHU21623XXSP,2013-04-25 10:36:00,
2013-04-25 06:41:00,31.6,29.1,30.14,SW,225,3.1,4.3,90,0.00,,,0.00,WUHU21623XXSP,2013-04-25 10:41:00,
2013-04-25 06:46:00,31.6,29.1,30.15,SW,225,3.1,4.3,90,0.00,,,0.00,WUHU21623XXSP,2013-04-25 10:46:00,
2013-04-25 06:51:00,31.8,29.3,30.15,SW,225,3.1,5.8,90,0.00,,,0.00,WUHU21623XXSP,2013-04-25 10:51:00,
2013-04-25 06:56:00,31.8,29.3,30.15,SW,225,2.7,5.8,90,0.00,,,0.00,WUHU21623XXSP,2013-04-25 10:56:00,
2013-04-25 07:01:00,32.4,29.8,30.15,SW,225,3.8,5.1,90,0.00,,,0.00,WUHU21623XXSP,2013-04-25 11:01:00,
2013-04-25 07:06:00,32.7,30.1,30.15,SW,225,3.6,4.5,90,0.00,,,0.00,WUHU21623XXSP,2013-04-25 11:06:00,
2013-04-25 07:11:00,33.4,30.8,30.16,SW,225,3.6,4.9,90,0.00,,,0.00,WUHU21623XXSP,2013-04-25 11:11:00,
2013-04-25 07:16:00,33.8,31.1,30.17,SW,225,3.6,5.6,90,0.00,,,0.00,WUHU21623XXSP,2013-04-25 11:16:00,
2013-04-25 07:21:00,34.3,31.6,30.17,SW,225,6.7,7.2,90,0.00,,,0.00,WUHU21623XXSP,2013-04-25 11:21:00,
2013-04-25 07:26:00,34.3,31.6,30.17,SW,225,2.2,7.2,90,0.00,,,0.00,WUHU21623XXSP,2013-04-25 11:26:00,
2013-04-25 07:31:00,34.9,32.2,30.17,SW,225,4.3,5.6,90,0.00,,,0.00,WUHU21623XXSP,2013-04-25 11:31:00,
2013-04-25 07:36:00,35.4,32.7,30.17,SW,225,5.4,6.0,90,0.00,,,0.00,WUHU21623XXSP,2013-04-25 11:36:00,
2013-04-25 07:41:00,36.0,33.3,30.17,SW,225,4.7,6.9,90,0.00,,,0.00,WUHU21623XXSP,2013-04-25 11:41:00,
2013-04-25 07:46:00,36.7,34.3,30.17,SW,225,3.1,7.2,91,0.00,,,0.00,WUHU21623XXSP,2013-04-25 11:46:00,
2013-04-25 07:51:00,37.2,34.8,30.18,SSW,202,6.9,7.6,91,0.00,,,0.00,WUHU21623XXSP,2013-04-25 11:51:00,
2013-04-25 07:56:00,37.9,35.5,30.17,SW,225,6.5,7.6,91,0.00,,,0.00,WUHU21623XXSP,2013-04-25 11:56:00,
2013-04-25 08:01:00,38.8,36.4,30.18,SSW,202,6.5,10.1,91,0.00,,,0.00,WUHU21623XXSP,2013-04-25 12:01:00,
2013-04-25 08:06:00,39.6,37.1,30.17,SW,225,7.2,10.1,91,0.00,,,0.00,WUHU21623XXSP,2013-04-25 12:06:00,
2013-04-25 08:11:00,40.1,37.7,30.17,SSW,202,3.4,11.0,91,0.00,,,0.00,WUHU21623XXSP,2013-04-25 12:11:00,
2013-04-25 08:16:00,41.0,38.6,30.17,SW,225,11.2,11.6,91,0.00,,,0.00,WUHU21623XXSP,2013-04-25 12:16:00,
2013-04-25 08:21:00,41.5,38.8,30.17,SW,225,11.2,14.3,90,0.00,,,0.00,WUHU21623XXSP,2013-04-25 12:21:00,
2013-04-25 08:26:00,42.1,39.1,30.17,SW,225,6.5,14.3,89,0.00,,,0.00,WUHU21623XXSP,2013-04-25 12:26:00,
2013-04-25 08:31:00,42.6,39.0,30.17,SW,225,10.1,13.4,87,0.00,,,0.00,WUHU21623XXSP,2013-04-25 12:31:00,
2013-04-25 08:36:00,43.0,38.4,30.18,SW,225,9.6,15.0,84,0.00,,,0.00,WUHU21623XXSP,2013-04-25 12:36:00,
2013-04-25 08:41:00,43.3,37.9,30.17,SW,225,8.1,15.0,81,0.00,,,0.00,WUHU21623XXSP,2013-04-25 12:41:00,
2013-04-25 08:46:00,44.1,38.6,30.18,SW,225,9.8,14.1,81,0.00,,,0.00,WUHU21623XXSP,2013-04-25 12:46:00,
2013-04-25 08:51:00,44.4,38.3,30.18,WSW,247,11.0,15.2,79,0.00,,,0.00,WUHU21623XXSP,2013-04-25 12:51:00,
2013-04-25 08:56:00,45.0,38.5,30.18,WSW,247,8.9,15.2,78,0.00,,,0.00,WUHU21623XXSP,2013-04-25 12:56:00,
2013-04-25 09:01:00,45.1,38.4,30.18,SW,225,12.8,14.3,77,0.00,,,0.00,WUHU21623XXSP,2013-04-25 13:01:00,
2013-04-25 09:06:00,45.5,38.4,30.18,SSW,202,9.2,14.5,76,0.00,,,0.00,WUHU21623XXSP,2013-04-25 13:06:00,
2013-04-25 09:11:00,46.0,38.6,30.18,SW,225,8.9,14.5,75,0.00,,,0.00,WUHU21623XXSP,2013-04-25 13:11:00,
2013-04-25 09:16:00,46.2,38.4,30.18,SW,225,8.7,15.2,74,0.00,,,0.00,WUHU21623XXSP,2013-04-25 13:16:00,
2013-04-25 09:21:00,46.2,38.1,30.18,SW,225,7.2,15.2,73,0.00,,,0.00,WUHU21623XXSP,2013-04-25 13:21:00,
2013-04-25 09:26:00,45.7,37.5,30.18,SSW,202,11.2,13.9,73,0.00,,,0.00,WUHU21623XXSP,2013-04-25 13:26:00,
2013-04-25 09:31:00,45.7,37.9,30.19,WSW,247,11.2,17.0,74,0.00,,,0.00,WUHU21623XXSP,2013-04-25 13:31:00,
2013-04-25 09:36:00,44.8,36.6,30.19,SW,225,10.1,17.0,73,0.00,,,0.00,WUHU21623XXSP,2013-04-25 13:36:00,
2013-04-25 09:41:00,45.5,38.0,30.19,WSW,247,11.9,16.8,75,0.00,,,0.00,WUHU21623XXSP,2013-04-25 13:41:00,
2013-04-25 09:46:00,45.3,37.5,30.19,SW,225,15.0,16.8,74,0.00,,,0.00,WUHU21623XXSP,2013-04-25 13:46:00,
2013-04-25 09:51:00,44.2,36.4,30.19,SW,225,13.4,18.1,74,0.00,,,0.00,WUHU21623XXSP,2013-04-25 13:51:00,
2013-04-25 09:56:00,44.2,36.8,30.19,SW,225,11.4,18.1,75,0.00,,,0.00,WUHU21623XXSP,2013-04-25 13:56:00,
2013-04-25 10:01:00,45.9,38.7,30.19,SSW,202,13.9,19.9,76,0.00,,,0.00,WUHU21623XXSP,2013-04-25 14:01:00,
2013-04-25 10:06:00,46.9,39.1,30.19,SW,225,13.6,19.9,74,0.00,,,0.00,WUHU21623XXSP,2013-04-25 14:06:00,
2013-04-25 10:11:00,47.8,39.2,30.19,WSW,247,10.5,14.5,72,0.00,,,0.00,WUHU21623XXSP,2013-04-25 14:11:00,
2013-04-25 10:16:00,48.0,38.7,30.19,WSW,247,0.4,13.6,70,0.00,,,0.00,WUHU21623XXSP,2013-04-25 14:16:00,
2013-04-25 10:21:00,48.0,37.9,30.19,WSW,247,8.7,13.6,68,0.00,,,0.00,WUHU21623XXSP,2013-04-25 14:21:00,
2013-04-25 10:26:00,48.4,38.2,30.19,South,180,12.8,15.9,68,0.00,,,0.00,WUHU21623XXSP,2013-04-25 14:26:00,
2013-04-25 10:31:00,48.9,39.0,30.19,South,180,7.4,15.9,69,0.00,,,0.00,WUHU21623XXSP,2013-04-25 14:31:00,
2013-04-25 10:36:00,49.3,38.8,30.19,SSW,202,7.4,17.4,67,0.00,,,0.00,WUHU21623XXSP,2013-04-25 14:36:00,
2013-04-25 10:41:00,49.3,38.8,30.19,SSW,202,11.4,18.6,67,0.00,,,0.00,WUHU21623XXSP,2013-04-25 14:41:00,
2013-04-25 10:46:00,49.5,38.5,30.19,South,180,7.6,18.6,66,0.00,,,0.00,WUHU21623XXSP,2013-04-25 14:46:00,
2013-04-25 10:51:00,49.3,37.6,30.19,WSW,247,0.0,17.0,64,0.00,,,0.00,WUHU21623XXSP,2013-04-25 14:51:00,
2013-04-25 10:57:00,49.3,38.4,30.19,SW,225,12.1,16.1,66,0.00,,,0.00,WUHU21623XXSP,2013-04-25 14:57:00,
2013-04-25 11:02:00,49.8,38.5,30.19,SW,225,14.1,17.2,65,0.00,,,0.00,WUHU21623XXSP,2013-04-25 15:02:00,
2013-04-25 11:07:00,49.8,38.5,30.19,SSW,202,10.7,17.4,65,0.00,,,0.00,WUHU21623XXSP,2013-04-25 15:07:00,
2013-04-25 11:12:00,50.2,38.9,30.19,SSW,202,8.5,17.4,66,0.00,,,0.00,WUHU21623XXSP,2013-04-25 15:12:00,
2013-04-25 11:17:00,50.2,38.8,30.19,SSW,202,9.6,16.1,65,0.00,,,0.00,WUHU21623XXSP,2013-04-25 15:17:00,
2013-04-25 11:22:00,50.5,39.2,30.19,SSW,202,11.9,15.4,65,0.00,,,0.00,WUHU21623XXSP,2013-04-25 15:22:00,
2013-04-25 11:27:00,50.5,38.1,30.19,South,180,7.2,17.4,62,0.00,,,0.00,WUHU21623XXSP,2013-04-25 15:27:00,
2013-04-25 11:32:00,50.9,38.3,30.19,SW,225,10.1,17.4,62,0.00,,,0.00,WUHU21623XXSP,2013-04-25 15:32:00,
2013-04-25 11:37:00,50.7,37.3,30.19,SW,225,6.5,19.7,60,0.00,,,0.00,WUHU21623XXSP,2013-04-25 15:37:00,
2013-04-25 11:42:00,50.5,37.2,30.19,SW,225,9.4,19.7,60,0.00,,,0.00,WUHU21623XXSP,2013-04-25 15:42:00,
2013-04-25 11:47:00,50.9,37.9,30.19,SW,225,12.1,17.4,61,0.00,,,0.00,WUHU21623XXSP,2013-04-25 15:47:00,
2013-04-25 11:52:00,51.4,38.0,30.19,WSW,247,0.9,16.8,60,0.00,,,0.00,WUHU21623XXSP,2013-04-25 15:52:00,
2013-04-25 11:57:00,51.6,38.1,30.19,SSW,202,2.7,14.8,60,0.00,,,0.00,WUHU21623XXSP,2013-04-25 15:57:00,
2013-04-25 12:02:00,51.6,38.1,30.19,SW,225,12.3,17.0,60,0.00,,,0.00,WUHU21623XXSP,2013-04-25 16:02:00,
2013-04-25 12:07:00,51.4,37.5,30.19,WSW,247,13.4,17.4,58,0.00,,,0.00,WUHU21623XXSP,2013-04-25 16:07:00,
2013-04-25 12:12:00,51.1,36.8,30.18,WSW,247,16.8,17.4,58,0.00,,,0.00,WUHU21623XXSP,2013-04-25 16:12:00,
2013-04-25 12:17:00,51.1,36.8,30.18,SW,225,13.4,17.4,58,0.00,,,0.00,WUHU21623XXSP,2013-04-25 16:17:00,
2013-04-25 12:22:00,51.4,37.1,30.18,SSW,202,11.4,19.0,58,0.00,,,0.00,WUHU21623XXSP,2013-04-25 16:22:00,
2013-04-25 12:27:00,51.4,36.2,30.19,SSW,202,15.0,19.0,56,0.00,,,0.00,WUHU21623XXSP,2013-04-25 16:27:00,
2013-04-25 12:32:00,51.6,35.9,30.19,SW,225,16.3,19.5,55,0.00,,,0.00,WUHU21623XXSP,2013-04-25 16:32:00,
2013-04-25 12:37:00,51.6,35.4,30.18,SSW,202,13.9,19.5,54,0.00,,,0.00,WUHU21623XXSP,2013-04-25 16:37:00,
2013-04-25 12:42:00,51.6,35.4,30.18,SSW,202,12.1,20.6,54,0.00,,,0.00,WUHU21623XXSP,2013-04-25 16:42:00,
2013-04-25 12:47:00,52.0,34.9,30.19,SSW,202,10.5,20.6,52,0.00,,,0.00,WUHU21623XXSP,2013-04-25 16:47:00,
2013-04-25 12:52:00,52.0,35.3,30.19,SSW,202,19.0,22.4,53,0.00,,,0.00,WUHU21623XXSP,2013-04-25 16:52:00,
2013-04-25 12:57:00,52.2,34.6,30.19,SW,225,6.7,22.4,51,0.00,,,0.00,WUHU21623XXSP,2013-04-25 16:57:00,
2013-04-25 13:02:00,52.3,34.7,30.18,WSW,247,14.8,21.7,51,0.00,,,0.00,WUHU21623XXSP,2013-04-25 17:02:00,
2013-04-25 13:07:00,52.2,34.1,30.18,SSW,202,12.1,21.7,50,0.00,,,0.00,WUHU21623XXSP,2013-04-25 17:07:00,
2013-04-25 13:12:00,52.5,34.4,30.18,WSW,247,8.7,21.7,50,0.00,,,0.00,WUHU21623XXSP,2013-04-25 17:12:00,
2013-04-25 13:17:00,52.7,32.4,30.18,SW,225,5.8,21.0,46,0.00,,,0.00,WUHU21623XXSP,2013-04-25 17:17:00,
2013-04-25 13:22:00,52.7,32.9,30.18,WSW,247,6.0,21.0,47,0.00,,,0.00,WUHU21623XXSP,2013-04-25 17:22:00,
2013-04-25 13:27:00,52.7,31.8,30.18,SW,225,14.5,24.2,45,0.00,,,0.00,WUHU21623XXSP,2013-04-25 17:27:00,
2013-04-25 13:32:00,52.7,31.8,30.18,SW,225,5.6,24.2,45,0.00,,,0.00,WUHU21623XXSP,2013-04-25 17:32:00,
2013-04-25 13:37:00,52.7,30.7,30.18,WSW,247,8.7,23.9,43,0.00,,,0.00,WUHU21623XXSP,2013-04-25 17:37:00,
2013-04-25 13:42:00,53.1,32.1,30.18,West,270,6.5,23.9,45,0.00,,,0.00,WUHU21623XXSP,2013-04-25 17:42:00,
2013-04-25 13:47:00,53.4,31.4,30.18,SSW,202,11.0,19.0,43,0.00,,,0.00,WUHU21623XXSP,2013-04-25 17:47:00,
2013-04-25 13:52:00,54.1,32.6,30.18,SSW,202,7.6,18.6,44,0.00,,,0.00,WUHU21623XXSP,2013-04-25 17:52:00,
2013-04-25 13:57:00,54.3,31.6,30.18,WSW,247,5.1,18.6,42,0.00,,,0.00,WUHU21623XXSP,2013-04-25 17:57:00,
2013-04-25 14:02:00,54.7,33.0,30.18,SSW,202,8.9,13.4,44,0.00,,,0.00,WUHU21623XXSP,2013-04-25 18:02:00,
2013-04-25 14:07:00,55.0,32.8,30.18,SSW,202,11.6,17.9,43,0.00,,,0.00,WUHU21623XXSP,2013-04-25 18:07:00,
2013-04-25 14:13:00,54.9,32.6,30.17,South,180,7.8,17.9,43,0.00,,,0.00,WUHU21623XXSP,2013-04-25 18:13:00,
2013-04-25 14:18:00,55.0,33.4,30.17,South,180,11.0,16.3,44,0.00,,,0.00,WUHU21623XXSP,2013-04-25 18:18:00,
2013-04-25 14:23:00,54.9,32.1,30.17,WSW,247,12.1,21.9,42,0.00,,,0.00,WUHU21623XXSP,2013-04-25 18:23:00,
2013-04-25 14:28:00,55.0,32.8,30.17,West,270,5.8,21.9,43,0.00,,,0.00,WUHU21623XXSP,2013-04-25 18:28:00,
2013-04-25 14:33:00,55.2,33.0,30.17,WSW,247,6.0,16.3,43,0.00,,,0.00,WUHU21623XXSP,2013-04-25 18:33:00,
2013-04-25 14:38:00,55.0,32.8,30.16,SW,225,14.8,17.4,43,0.00,,,0.00,WUHU21623XXSP,2013-04-25 18:38:00,
2013-04-25 14:43:00,55.2,33.0,30.16,SW,225,9.6,17.4,43,0.00,,,0.00,WUHU21623XXSP,2013-04-25 18:43:00,
2013-04-25 14:48:00,55.9,33.1,30.17,West,270,6.3,14.3,42,0.00,,,0.00,WUHU21623XXSP,2013-04-25 18:48:00,
2013-04-25 14:53:00,54.9,33.2,30.16,WSW,247,2.7,15.0,44,0.00,,,0.00,WUHU21623XXSP,2013-04-25 18:53:00,
2013-04-25 14:58:00,55.8,32.9,30.17,WSW,247,13.9,21.5,42,0.00,,,0.00,WUHU21623XXSP,2013-04-25 18:58:00,
2013-04-25 15:03:00,55.9,33.1,30.16,WSW,247,6.7,21.5,42,0.00,,,0.00,WUHU21623XXSP,2013-04-25 19:03:00,
2013-04-25 15:08:00,55.9,33.1,30.16,WSW,247,8.9,23.9,42,0.00,,,0.00,WUHU21623XXSP,2013-04-25 19:08:00,
2013-04-25 15:13:00,56.1,33.2,30.16,SW,225,5.8,23.9,42,0.00,,,0.00,WUHU21623XXSP,2013-04-25 19:13:00,
2013-04-25 15:18:00,55.6,32.7,30.16,WSW,247,6.9,18.8,42,0.00,,,0.00,WUHU21623XXSP,2013-04-25 19:18:00,
2013-04-25 15:23:00,56.5,34.7,30.16,WSW,247,11.0,17.9,44,0.00,,,0.00,WUHU21623XXSP,2013-04-25 19:23:00,
2013-04-25 15:28:00,56.8,33.3,30.16,WSW,247,12.8,19.0,41,0.00,,,0.00,WUHU21623XXSP,2013-04-25 19:28:00,
2013-04-25 15:33:00,57.2,34.2,30.16,WSW,247,8.3,19.0,42,0.00,,,0.00,WUHU21623XXSP,2013-04-25 19:33:00,
2013-04-25 15:38:00,57.0,33.5,30.16,WSW,247,13.6,20.6,41,0.00,,,0.00,WUHU21623XXSP,2013-04-25 19:38:00,
2013-04-25 15:43:00,57.0,34.1,30.15,SSW,202,9.4,20.6,42,0.00,,,0.00,WUHU21623XXSP,2013-04-25 19:43:00,
2013-04-25 15:48:00,55.6,33.3,30.15,SW,225,12.1,17.7,43,0.00,,,0.00,WUHU21623XXSP,2013-04-25 19:48:00,
2013-04-25 15:53:00,55.0,32.3,30.15,WSW,247,5.1,17.9,42,0.00,,,0.00,WUHU21623XXSP,2013-04-25 19:53:00,
2013-04-25 15:58:00,54.7,32.5,30.15,SW,225,15.9,17.9,43,0.00,,,0.00,WUHU21623XXSP,2013-04-25 19:58:00,
2013-04-25 16:03:00,54.7,33.0,30.15,SW,225,11.6,19.7,44,0.00,,,0.00,WUHU21623XXSP,2013-04-25 20:03:00,
2013-04-25 16:08:00,54.5,32.9,30.15,WSW,247,11.2,19.7,44,0.00,,,0.00,WUHU21623XXSP,2013-04-25 20:08:00,
2013-04-25 16:13:00,54.0,32.4,30.15,SW,225,11.9,16.8,44,0.00,,,0.00,WUHU21623XXSP,2013-04-25 20:13:00,
2013-04-25 16:18:00,53.4,32.5,30.15,SW,225,12.8,16.6,45,0.00,,,0.00,WUHU21623XXSP,2013-04-25 20:18:00,
2013-04-25 16:23:00,53.2,32.9,30.15,SW,225,11.2,16.6,46,0.00,,,0.00,WUHU21623XXSP,2013-04-25 20:23:00,
2013-04-25 16:28:00,52.9,32.0,30.14,SW,225,17.0,17.0,45,0.00,,,0.00,WUHU21623XXSP,2013-04-25 20:28:00,
2013-04-25 16:33:00,52.5,31.7,30.14,SW,225,14.5,17.0,45,0.00,,,0.00,WUHU21623XXSP,2013-04-25 20:33:00,
2013-04-25 16:38:00,52.3,32.1,30.14,SSW,202,8.9,16.6,46,0.00,,,0.00,WUHU21623XXSP,2013-04-25 20:38:00,
2013-04-25 16:43:00,52.3,32.1,30.14,SW,225,16.6,16.6,46,0.00,,,0.00,WUHU21623XXSP,2013-04-25 20:43:00,
2013-04-25 16:48:00,52.7,32.9,30.14,WSW,247,9.4,16.6,47,0.00,,,0.00,WUHU21623XXSP,2013-04-25 20:48:00,
2013-04-25 16:53:00,52.9,32.5,30.14,WSW,247,8.5,16.6,46,0.00,,,0.00,WUHU21623XXSP,2013-04-25 20:53:00,
2013-04-25 16:58:00,53.2,31.7,30.14,SW,225,11.6,16.6,44,0.00,,,0.00,WUHU21623XXSP,2013-04-25 20:58:00,
2013-04-25 17:03:00,52.9,32.0,30.15,SW,225,12.1,18.3,45,0.00,,,0.00,WUHU21623XXSP,2013-04-25 21:03:00,
2013-04-25 17:08:00,52.7,31.8,30.14,SW,225,1.3,18.3,45,0.00,,,0.00,WUHU21623XXSP,2013-04-25 21:08:00,
2013-04-25 17:13:00,52.5,32.2,30.15,SW,225,12.1,14.5,46,0.00,,,0.00,WUHU21623XXSP,2013-04-25 21:13:00,
2013-04-25 17:18:00,52.5,32.2,30.15,SW,225,9.6,14.5,46,0.00,,,0.00,WUHU21623XXSP,2013-04-25 21:18:00,
2013-04-25 17:23:00,52.7,33.5,30.15,SSW,202,0.0,15.4,48,0.00,,,0.00,WUHU21623XXSP,2013-04-25 21:23:00,
2013-04-25 17:28:00,52.7,32.9,30.15,WSW,247,13.6,17.4,47,0.00,,,0.00,WUHU21623XXSP,2013-04-25 21:28:00,
2013-04-25 17:33:00,52.3,32.6,30.15,WSW,247,17.7,17.7,47,0.00,,,0.00,WUHU21623XXSP,2013-04-25 21:33:00,
2013-04-25 17:38:00,52.0,32.8,30.16,SW,225,17.0,17.7,48,0.00,,,0.00,WUHU21623XXSP,2013-04-25 21:38:00,
2013-04-25 17:43:00,51.6,32.0,30.16,West,270,9.6,17.0,47,0.00,,,0.00,WUHU21623XXSP,2013-04-25 21:43:00,
2013-04-25 17:48:00,51.4,32.4,30.17,West,270,14.8,24.4,48,0.00,,,0.00,WUHU21623XXSP,2013-04-25 21:48:00,
2013-04-25 17:53:00,50.5,32.7,30.17,WSW,247,19.5,24.4,50,0.00,,,0.00,WUHU21623XXSP,2013-04-25 21:53:00,
2013-04-25 17:59:00,50.2,33.2,30.18,West,270,11.0,20.1,52,0.00,,,0.00,WUHU21623XXSP,2013-04-25 21:59:00,
2013-04-25 18:04:00,49.6,32.7,30.18,West,270,7.4,26.4,52,0.00,,,0.00,WUHU21623XXSP,2013-04-25 22:04:00,
2013-04-25 18:09:00,48.9,33.4,30.19,WSW,247,4.9,26.4,55,0.00,,,0.00,WUHU21623XXSP,2013-04-25 22:09:00,
2013-04-25 18:14:00,48.6,33.5,30.19,WSW,247,21.7,24.8,56,0.00,,,0.00,WUHU21623XXSP,2013-04-25 22:14:00,
2013-04-25 18:19:00,48.0,33.5,30.19,West,270,13.9,27.1,57,0.00,,,0.00,WUHU21623XXSP,2013-04-25 22:19:00,
2013-04-25 18:24:00,47.5,33.9,30.20,West,270,17.0,27.1,59,0.00,,,0.00,WUHU21623XXSP,2013-04-25 22:24:00,
2013-04-25 18:29:00,46.9,33.8,30.20,West,270,17.2,21.9,60,0.00,,,0.00,WUHU21623XXSP,2013-04-25 22:29:00,
2013-04-25 18:34:00,46.2,34.7,30.21,WNW,292,7.8,24.2,64,0.00,,,0.00,WUHU21623XXSP,2013-04-25 22:34:00,
2013-04-25 18:39:00,45.1,35.2,30.21,West,270,12.5,24.2,68,0.00,,,0.00,WUHU21623XXSP,2013-04-25 22:39:00,
2013-04-25 18:44:00,44.2,35.8,30.22,West,270,13.2,20.8,72,0.00,,,0.00,WUHU21623XXSP,2013-04-25 22:44:00,
2013-04-25 18:49:00,43.5,35.8,30.22,West,270,6.5,19.7,74,0.00,,,0.00,WUHU21623XXSP,2013-04-25 22:49:00,
2013-04-25 18:54:00,43.2,36.4,30.22,West,270,5.8,20.6,77,0.02,,,0.02,WUHU21623XXSP,2013-04-25 22:54:00,
2013-04-25 18:59:00,42.6,36.2,30.21,West,270,3.4,20.6,78,0.02,,,0.02,WUHU21623XXSP,2013-04-25 22:59:00,
2013-04-25 19:04:00,42.6,36.2,30.22,WSW,247,10.5,14.5,78,0.02,,,0.02,WUHU21623XXSP,2013-04-25 23:04:00,
2013-04-25 19:09:00,42.6,36.2,30.22,SW,225,4.3,14.3,78,0.02,,,0.02,WUHU21623XXSP,2013-04-25 23:09:00,
2013-04-25 19:14:00,42.8,37.0,30.21,SW,225,12.8,16.3,80,0.02,,,0.02,WUHU21623XXSP,2013-04-25 23:14:00,
2013-04-25 19:19:00,42.6,36.5,30.21,WSW,247,9.6,16.3,79,0.02,,,0.02,WUHU21623XXSP,2013-04-25 23:19:00,
2013-04-25 19:24:00,42.6,36.5,30.21,SW,225,7.6,14.3,79,0.02,,,0.02,WUHU21623XXSP,2013-04-25 23:24:00,
2013-04-25 19:29:00,42.6,36.5,30.21,SW,225,6.5,14.3,79,0.02,,,0.02,WUHU21623XXSP,2013-04-25 23:29:00,
2013-04-25 19:34:00,42.4,36.4,30.21,SW,225,7.8,13.6,79,0.02,,,0.02,WUHU21623XXSP,2013-04-25 23:34:00,
2013-04-25 19:39:00,42.6,36.5,30.21,SW,225,9.8,12.5,79,0.02,,,0.02,WUHU21623XXSP,2013-04-25 23:39:00,
2013-04-25 19:44:00,42.6,36.9,30.21,SW,225,10.7,15.2,80,0.02,,,0.02,WUHU21623XXSP,2013-04-25 23:44:00,
2013-04-25 19:49:00,42.6,36.9,30.21,SW,225,6.9,15.2,80,0.00,,,0.02,WUHU21623XXSP,2013-04-25 23:49:00,
2013-04-25 19:54:00,42.6,36.9,30.22,WSW,247,0.0,13.6,80,0.00,,,0.02,WUHU21623XXSP,2013-04-25 23:54:00,
2013-04-25 19:59:00,42.6,36.9,30.22,SW,225,7.2,13.6,80,0.00,,,0.02,WUHU21623XXSP,2013-04-25 23:59:00,
2013-04-25 20:04:00,42.8,37.0,30.22,West,270,3.8,12.3,80,0.00,,,0.02,WUHU21623XXSP,2013-04-26 00:04:00,
2013-04-25 20:09:00,43.0,37.2,30.22,SW,225,6.9,9.8,80,0.00,,,0.02,WUHU21623XXSP,2013-04-26 00:09:00,
2013-04-25 20:14:00,43.0,37.2,30.22,SW,225,6.7,9.4,80,0.00,,,0.02,WUHU21623XXSP,2013-04-26 00:14:00,
2013-04-25 20:19:00,43.0,37.2,30.22,SW,225,7.4,11.4,80,0.00,,,0.02,WUHU21623XXSP,2013-04-26 00:19:00,
2013-04-25 20:24:00,42.8,37.0,30.22,SW,225,10.1,11.4,80,0.00,,,0.02,WUHU21623XXSP,2013-04-26 00:24:00,
2013-04-25 20:29:00,43.0,37.2,30.22,SW,225,6.9,15.4,80,0.00,,,0.02,WUHU21623XXSP,2013-04-26 00:29:00,
2013-04-25 20:34:00,43.0,37.2,30.23,SW,225,7.6,15.4,80,0.00,,,0.02,WUHU21623XXSP,2013-04-26 00:34:00,
2013-04-25 20:39:00,43.0,37.2,30.23,SW,225,16.8,17.4,80,0.00,,,0.02,WUHU21623XXSP,2013-04-26 00:39:00,
2013-04-25 20:44:00,43.2,37.4,30.23,WSW,247,6.0,17.9,80,0.00,,,0.02,WUHU21623XXSP,2013-04-26 00:44:00,
2013-04-25 20:49:00,43.2,37.4,30.24,SW,225,6.5,20.6,80,0.00,,,0.02,WUHU21623XXSP,2013-04-26 00:49:00,
2013-04-25 20:54:00,43.3,37.2,30.24,West,270,10.5,20.6,79,0.00,,,0.02,WUHU21623XXSP,2013-04-26 00:54:00,
2013-04-25 20:59:00,43.5,37.4,30.25,NW,315,14.5,19.5,79,0.00,,,0.02,WUHU21623XXSP,2013-04-26 00:59:00,
2013-04-25 21:04:00,42.1,36.0,30.25,NW,315,16.3,20.6,79,0.00,,,0.02,WUHU21623XXSP,2013-04-26 01:04:00,
2013-04-25 21:09:00,41.2,35.6,30.26,WNW,292,7.4,20.6,80,0.00,,,0.02,WUHU21623XXSP,2013-04-26 01:09:00,
2013-04-25 21:14:00,40.8,35.7,30.26,West,270,8.5,17.9,82,0.00,,,0.02,WUHU21623XXSP,2013-04-26 01:14:00,
2013-04-25 21:19:00,40.6,35.8,30.26,WNW,292,8.5,17.4,83,0.00,,,0.02,WUHU21623XXSP,2013-04-26 01:19:00,
2013-04-25 21:24:00,40.3,35.8,30.27,West,270,4.7,15.4,84,0.00,,,0.02,WUHU21623XXSP,2013-04-26 01:24:00,
2013-04-25 21:29:00,40.1,35.9,30.27,West,270,6.7,11.0,85,0.00,,,0.02,WUHU21623XXSP,2013-04-26 01:29:00,
2013-04-25 21:34:00,39.9,35.7,30.27,West,270,0.0,10.1,85,0.00,,,0.02,WUHU21623XXSP,2013-04-26 01:34:00,
2013-04-25 21:39:00,39.7,35.6,30.26,SSW,202,0.7,8.5,85,0.00,,,0.02,WUHU21623XXSP,2013-04-26 01:39:00,
2013-04-25 21:44:00,39.7,35.6,30.26,SSW,202,4.3,4.3,85,0.00,,,0.02,WUHU21623XXSP,2013-04-26 01:44:00,
2013-04-25 21:49:00,39.7,35.6,30.26,SSW,202,4.0,4.3,85,0.00,,,0.02,WUHU21623XXSP,2013-04-26 01:49:00,
2013-04-25 21:54:00,39.6,35.4,30.27,SSW,202,2.2,4.0,85,0.00,,,0.02,WUHU21623XXSP,2013-04-26 01:54:00,
2013-04-25 21:59:00,39.6,35.4,30.27,SSW,202,0.0,4.0,85,0.00,,,0.02,WUHU21623XXSP,2013-04-26 01:59:00,
2013-04-25 22:04:00,39.4,35.2,30.27,SSW,202,0.0,1.3,85,0.00,,,0.02,WUHU21623XXSP,2013-04-26 02:04:00,
2013-04-25 22:09:00,39.4,35.2,30.27,WSW,247,2.2,6.5,85,0.00,,,0.02,WUHU21623XXSP,2013-04-26 02:09:00,
2013-04-25 22:14:00,39.0,34.9,30.27,WSW,247,0.0,6.5,85,0.00,,,0.02,WUHU21623XXSP,2013-04-26 02:14:00,
2013-04-25 22:19:00,39.0,34.9,30.27,WSW,247,0.0,1.1,85,0.00,,,0.02,WUHU21623XXSP,2013-04-26 02:19:00,
2013-04-25 22:25:00,38.8,34.7,30.27,WSW,247,0.0,1.1,85,0.00,,,0.02,WUHU21623XXSP,2013-04-26 02:25:00,
2013-04-25 22:30:00,38.5,34.3,30.27,WSW,247,0.0,0.0,85,0.00,,,0.02,WUHU21623XXSP,2013-04-26 02:30:00,
2013-04-25 22:35:00,38.3,34.2,30.28,WSW,247,0.0,0.0,85,0.00,,,0.02,WUHU21623XXSP,2013-04-26 02:35:00,
2013-04-25 22:40:00,38.1,34.3,30.28,WSW,247,0.0,0.0,86,0.00,,,0.02,WUHU21623XXSP,2013-04-26 02:40:00,
2013-04-25 22:45:00,37.8,33.9,30.28,WSW,247,0.0,0.7,86,0.00,,,0.02,WUHU21623XXSP,2013-04-26 02:45:00,
2013-04-25 22:50:00,37.4,33.5,30.28,WSW,247,0.0,0.7,86,0.00,,,0.02,WUHU21623XXSP,2013-04-26 02:50:00,
2013-04-25 22:55:00,37.2,33.4,30.28,WSW,247,0.0,0.0,86,0.00,,,0.02,WUHU21623XXSP,2013-04-26 02:55:00,
2013-04-25 23:00:00,37.0,33.2,30.28,WSW,247,0.0,0.0,86,0.00,,,0.02,WUHU21623XXSP,2013-04-26 03:00:00,
2013-04-25 23:05:00,37.0,33.2,30.29,WSW,247,0.0,0.0,86,0.00,,,0.02,WUHU21623XXSP,2013-04-26 03:05:00,
2013-04-25 23:10:00,37.2,33.4,30.29,WSW,247,0.0,0.0,86,0.00,,,0.02,WUHU21623XXSP,2013-04-26 03:10:00,
2013-04-25 23:15:00,37.2,33.4,30.29,WSW,247,0.0,0.0,86,0.00,,,0.02,WUHU21623XXSP,2013-04-26 03:15:00,
2013-04-25 23:20:00,37.2,33.4,30.29,WSW,247,0.0,0.0,86,0.00,,,0.02,WUHU21623XXSP,2013-04-26 03:20:00,
2013-04-25 23:25:00,37.0,33.2,30.29,WSW,247,2.2,2.2,86,0.00,,,0.02,WUHU21623XXSP,2013-04-26 03:25:00,
2013-04-25 23:30:00,37.0,33.5,30.29,SW,225,0.0,4.7,87,0.00,,,0.02,WUHU21623XXSP,2013-04-26 03:30:00,
2013-04-25 23:35:00,37.0,33.5,30.29,WSW,247,4.7,4.9,87,0.00,,,0.02,WUHU21623XXSP,2013-04-26 03:35:00,
2013-04-25 23:40:00,37.2,33.7,30.29,SW,225,4.7,6.7,87,0.00,,,0.02,WUHU21623XXSP,2013-04-26 03:40:00,
2013-04-25 23:45:00,37.2,33.7,30.29,WSW,247,3.1,6.7,87,0.00,,,0.02,WUHU21623XXSP,2013-04-26 03:45:00,
2013-04-25 23:50:00,37.2,33.9,30.30,SW,225,4.3,7.6,88,0.00,,,0.02,WUHU21623XXSP,2013-04-26 03:50:00,
2013-04-25 23:55:00,37.2,33.9,30.30,SW,225,6.7,7.6,88,0.00,,,0.02,WUHU21623XXSP,2013-04-26 03:55:00,